Location: Newark
(54.0500°N, 12.8333°E)
Time: 02:37:43
(UTC+00:00)

Transit 4A - Pass Details

Date: 30 January 2020
Orbit: 872 x 973 km, 66.8° (Epoch: 26 February)

Event Time Altitude Azimuth Distance (km) Brightness Sun altitude
Rises 03:21:41 0° 164° (SSE) 3,532 11.0 -31.8°
Reaches altitude 10° 03:25:00 10° 146° (SE) 2,577 10.4 -31.4°
Maximum altitude 03:28:49 18° 106° (ESE) 2,059 10.3 -30.8°
Drops below altitude 10° 03:32:35 10° 66° (ENE) 2,552 11.1 -30.3°
Sets 03:35:51 0° 48° (NE) 3,485 11.7 -29.8°
